Torna al catalogo

ARIANE 1 DEB

AttivoHEO
NORAD 40778·DEBRIS·🇫🇷 France

Lanciato Dec 24, 1979 da Guiana Space Centre

Loading…

Prossimi Passaggi (prossime 24 ore)

TLE

In scadenzaSource: Space-Track

Epoca: Aug 28, 2026, 13:11 UTC

1 40778U 79104AF  26240.54951310  .00000150  00000-0  30614-3 0  9992
2 40778  18.0202  13.4139 4828834 265.2671  66.1646  5.58150400258549

Traccia ARIANE 1 DEB in tempo reale con AllMySat

Download on the App Store